Погода в Тросне

Россия / Брянская область     53°28′41″N   33°47′15″E
темп.,
°C
ветер,
м/с
пор.,
м/с
влажн.,
%
обл.,
%
осадки,
мм/ч
давл.,
гПа
погр.,
м
19 апреля, пн
пн1900:00+4ссв379516 0.0 1020206
03:00+3ссв249623 0.0 102076
06:00+5ссв379399 0.1 1019433
09:00+6св4887100 0.1 1019781
12:00+7св4885100 0.1 1020762
15:00+9св5773100 0.1 10191074
18:00+7св5988100 0.0 1019746
21:00+6всв4991100 0.1 1020888
20 апреля, вт
вт2000:00+5св3891100 0.3 1019931
03:00+4св4997100 0.5 1017660
06:00+3св4997100 0.1 1016388
09:00+3св4894100 0.1 1015348
12:00+7всв4683100 0.0 1014566
15:00+7св4994100 0.3 1012580
18:00+7св5880100 0.1 1010829
21:00+4ссв51096100 0.1 1009548
21 апреля, ср
ср2100:00+3с51096100 0.2 1006558
03:00+2ссз51097100 1.6 1004513
06:00+3сз51197100 0.4 1003591
09:00+4зсз51194100 0.4 1005813
12:00+6з587792 0.1 10061096
15:00+8зюз6868100 0.4 10081358
18:00+7зюз477080 0.2 1010622
21:00+5юз4990100 0.3 1012603
22 апреля, чт
чт2200:00+4ююз399586 0.4 1012258
03:00+4ю269796 0.4 1013163
06:00+3ююз229675 0.0 101443
09:00+9ю347514 0.0 1014383
12:00+13ю466028 0.4 10141308
15:00+15юз475189 1.4 10132051
18:00+13ююз376580 0.1 1014480
21:00+9ю3685100 0.5 1015114
23 апреля, пт
пт2300:00+8ююз3892100 0.0 1015223
03:00+6ю389614 0.0 1015184
06:00+6ю2897100 0.0 1015198
09:00+10ю598081 0.2 1014532
12:00+15ююз71162100 0.9 10131734
15:00+10сз4687100 2.7 1013383
18:00+6ссз4791100 0.9 1015673
21:00+5сз2488100 1.1 1015321